Powrót do katalogu

ONEWEB-0416

AktywnyŁącznośćPO
NORAD 51625·PAYLOAD·🇬🇧 United Kingdom

Wystrzelony Feb 10, 2022 z Guiana Space Centre

Loading…

Następne Przeloty (najbliższe 24 godziny)

TLE

ŚwieżeSource: CelesTrak SupGP

Epoka: Sep 14, 2026, 18:22 UTC

1 51625C 22012D   26257.76579120  .00002180  00000+0  62541-2 0  2572
2 51625  87.8893  18.4454 0001377 108.1183   4.7454 13.10366184    18

Śledź ONEWEB-0416 w czasie rzeczywistym z AllMySat

Download on the App Store